| time (UTC) | temp C | wind direction | speed KPH | gust KPH | rain 1hr cm | rain 24hr cm | rain mn cm | humidity % | barometer mb |
| 20260504130723 | 13 | 180 | 0.0 | 1.6 | 0.00 | 0.00 | 0.00 | 71 | 1016.3 |
| 20260504081829 | 19 | 315 | 3.2 | 17.7 | 0.00 | 1.57 | 0.00 | 31 | 1010.8 |
| 20260504080831 | 19 | 90 | 6.4 | 12.9 | 0.00 | 1.63 | 0.00 | 30 | 1010.8 |
| 20260504045914 | 23 | 270 | 9.7 | 22.5 | 0.00 | 3.51 | 0.00 | 25 | 1007.8 |
| 20260504044916 | 24 | 225 | 12.9 | 38.6 | 0.00 | 3.66 | 0.00 | 25 | 1007.8 |
| 20260504043919 | 24 | 225 | 9.7 | 25.7 | 0.00 | 3.68 | 0.00 | 25 | 1008.0 |
| 20260504042921 | 24 | 203 | 12.9 | 27.4 | 0.00 | 3.73 | 0.00 | 26 | 1008.1 |
| 20260504041923 | 24 | 270 | 14.5 | 30.6 | 0.00 | 3.84 | 0.00 | 25 | 1008.0 |
| 20260504040925 | 23 | 270 | 12.9 | 35.4 | 0.00 | 3.91 | 0.00 | 27 | 1008.0 |
| 20260504035928 | 23 | 270 | 14.5 | 24.1 | 0.00 | 3.91 | 0.00 | 28 | 1008.2 |
| 20260504034930 | 22 | 270 | 12.9 | 30.6 | 0.00 | 3.99 | 0.00 | 31 | 1008.2 |
| 20260504033932 | 22 | 225 | 16.1 | 30.6 | 0.00 | 4.04 | 0.00 | 30 | 1008.2 |
| 20260504032934 | 21 | 315 | 12.9 | 35.4 | 0.00 | 4.06 | 0.00 | 32 | 1008.1 |
| 20260504031937 | 21 | 270 | 16.1 | 37.0 | 0.00 | 4.09 | 0.00 | 32 | 1008.3 |
| 20260504030939 | 21 | 270 | 12.9 | 37.0 | 0.00 | 4.09 | 0.00 | 34 | 1008.3 |
| 20260504025941 | 21 | 225 | 8.0 | 20.9 | 0.00 | 4.11 | 0.00 | 38 | 1008.2 |
| 20260504024944 | 20 | 0 | 9.7 | 35.4 | 0.00 | 4.11 | 0.00 | 37 | 1008.5 |
| 20260504023946 | 21 | 225 | 6.4 | 24.1 | 0.00 | 4.17 | 0.00 | 39 | 1008.3 |
| 20260504022948 | 20 | 270 | 6.4 | 27.4 | 0.00 | 4.17 | 0.00 | 38 | 1008.3 |
| 20260504021951 | 20 | 225 | 8.0 | 22.5 | 0.00 | 4.17 | 0.00 | 39 | 1008.1 |
| 20260504020953 | 20 | 225 | 6.4 | 24.1 | 0.00 | 4.17 | 0.00 | 39 | 1008.2 |
| 20260504015955 | 20 | 315 | 6.4 | 25.7 | 0.00 | 4.17 | 0.00 | 39 | 1008.0 |
| 20260504014958 | 20 | 270 | 6.4 | 16.1 | 0.00 | 4.19 | 0.00 | 40 | 1007.9 |
| 20260504014000 | 20 | 270 | 6.4 | 25.7 | 0.00 | 4.19 | 0.00 | 38 | 1008.0 |
| 20260504013002 | 21 | 225 | 9.7 | 20.9 | 0.00 | 4.19 | 0.00 | 41 | 1008.0 |
| 20260504012004 | 21 | 248 | 12.9 | 32.2 | 0.00 | 4.19 | 0.00 | 39 | 1007.7 |
| 20260504011007 | 20 | 315 | 9.7 | 20.9 | 0.00 | 4.19 | 0.00 | 41 | 1007.4 |
| 20260504010009 | 20 | 270 | 9.7 | 30.6 | 0.00 | 4.19 | 0.00 | 40 | 1007.5 |
| 20260504005011 | 21 | 270 | 8.0 | 30.6 | 0.00 | 4.19 | 0.00 | 39 | 1007.4 |
| 20260504004014 | 21 | 270 | 9.7 | 24.1 | 0.00 | 4.19 | 0.00 | 40 | 1007.4 |
| 20260504003016 | 22 | 225 | 9.7 | 25.7 | 0.00 | 4.22 | 0.00 | 39 | 1007.2 |
| 20260504002018 | 22 | 225 | 8.0 | 20.9 | 0.00 | 4.22 | 0.00 | 39 | 1007.2 |
| 20260504001020 | 23 | 270 | 6.4 | 12.9 | 0.00 | 4.22 | 0.00 | 42 | 1007.2 |
| 20260504000023 | 22 | 225 | 6.4 | 20.9 | 0.00 | 4.22 | 0.00 | 43 | 1007.1 |
| 20260503235025 | 21 | 225 | 9.7 | 25.7 | 0.00 | 4.22 | 0.00 | 43 | 1007.1 |
| 20260503234027 | 22 | 270 | 8.0 | 17.7 | 0.00 | 4.22 | 0.00 | 44 | 1007.0 |
| 20260503233029 | 21 | 90 | 8.0 | 17.7 | 0.00 | 4.24 | 0.00 | 51 | 1007.0 |
| 20260503232032 | 21 | 225 | 6.4 | 17.7 | 0.00 | 4.24 | 0.00 | 55 | 1007.0 |
| 20260503231034 | 21 | 270 | 6.4 | 16.1 | 0.00 | 4.24 | 0.00 | 55 | 1006.9 |
| 20260503230036 | 21 | 225 | 6.4 | 17.7 | 0.00 | 4.24 | 0.00 | 59 | 1006.7 |
| 20260503225039 | 20 | 293 | 8.0 | 14.5 | 0.00 | 4.24 | 0.00 | 61 | 1006.9 |
| 20260503224041 | 20 | 225 | 8.0 | 19.3 | 0.00 | 4.24 | 0.00 | 65 | 1006.9 |
| 20260503223043 | 19 | 225 | 3.2 | 11.3 | 0.00 | 4.24 | 0.00 | 69 | 1006.6 |
| 20260503222046 | 19 | 315 | 3.2 | 12.9 | 0.00 | 4.24 | 0.00 | 79 | 1006.5 |
| 20260503221047 | 18 | 225 | 0.0 | 9.7 | 0.00 | 4.24 | 0.00 | 83 | 1006.6 |
| 20260503220050 | 17 | 180 | 1.6 | 8.0 | 0.00 | 4.24 | 0.00 | 86 | 1006.5 |
| 20260503215052 | 17 | 225 | 3.2 | 9.7 | 0.00 | 4.24 | 0.00 | 90 | 1006.5 |
| 20260503214055 | 17 | 248 | 3.2 | 9.7 | 0.00 | 4.24 | 0.00 | 95 | 1006.4 |
| 20260503213057 | 16 | 225 | 1.6 | 11.3 | 0.00 | 4.24 | 0.00 | 99 | 1006.3 |
| 20260503212059 | 16 | 270 | 4.8 | 11.3 | 0.00 | 4.24 | 0.00 | 99 | 1006.3 |
| 20260503211102 | 15 | 293 | 3.2 | 8.0 | 0.00 | 4.24 | 0.00 | 99 | 1006.5 |
| 20260503210104 | 15 | 270 | 9.7 | 24.1 | 0.00 | 4.24 | 0.00 | 99 | 1005.9 |
| 20260503205107 | 15 | 270 | 11.3 | 25.7 | 0.00 | 4.24 | 0.00 | 99 | 1005.4 |
| 20260503204109 | 15 | 225 | 6.4 | 14.5 | 0.00 | 4.24 | 0.00 | 99 | 1005.3 |
| 20260503203111 | 15 | 225 | 3.2 | 12.9 | 0.00 | 4.24 | 0.00 | 99 | 1004.7 |
| 20260503202114 | 15 | 270 | 4.8 | 12.9 | 0.00 | 4.24 | 0.00 | 99 | 1004.3 |
| 20260503201116 | 15 | 225 | 3.2 | 12.9 | 0.00 | 4.24 | 0.00 | 99 | 1004.5 |
| 20260503200119 | 15 | 225 | 3.2 | 9.7 | 0.00 | 4.24 | 0.00 | 99 | 1004.4 |
| 20260503195121 | 15 | 225 | 6.4 | 17.7 | 0.00 | 4.24 | 0.00 | 99 | 1004.3 |
| 20260503194123 | 16 | 225 | 4.8 | 16.1 | 0.00 | 4.24 | 0.00 | 99 | 1004.5 |
| 20260503193125 | 16 | 270 | 8.0 | 14.5 | 0.00 | 4.24 | 0.00 | 99 | 1004.6 |
| 20260503192128 | 16 | 270 | 6.4 | 12.9 | 0.00 | 4.24 | 0.00 | 99 | 1004.3 |
| 20260503191130 | 16 | 225 | 6.4 | 11.3 | 0.00 | 4.24 | 0.00 | 99 | 1004.4 |
| 20260503190132 | 16 | 270 | 3.2 | 11.3 | 0.00 | 4.24 | 0.00 | 99 | 1004.1 |
| 20260503185135 | 16 | 270 | 3.2 | 14.5 | 0.00 | 4.24 | 0.00 | 99 | 1004.0 |
| 20260503184137 | 16 | 270 | 4.8 | 11.3 | 0.00 | 4.24 | 0.00 | 99 | 1004.0 |
| 20260503183139 | 17 | 248 | 0.0 | 4.8 | 0.00 | 4.24 | 0.00 | 99 | 1004.1 |
| 20260503182141 | 17 | 248 | 3.2 | 8.0 | 0.00 | 4.24 | 0.00 | 99 | 1004.3 |
| 20260503181144 | 17 | 270 | 3.2 | 8.0 | 0.00 | 4.24 | 0.00 | 99 | 1003.9 |
| 20260503180146 | 17 | 225 | 1.6 | 8.0 | 0.00 | 4.24 | 0.00 | 99 | 1003.7 |
| 20260503175148 | 17 | 270 | 3.2 | 8.0 | 0.00 | 4.24 | 0.00 | 99 | 1003.6 |
| 20260503174151 | 17 | 225 | 3.2 | 6.4 | 0.00 | 4.24 | 0.00 | 99 | 1003.4 |
| 20260503173153 | 17 | 270 | 3.2 | 6.4 | 0.00 | 4.24 | 0.00 | 99 | 1003.3 |
| 20260503172156 | 17 | 270 | 3.2 | 4.8 | 0.00 | 4.24 | 0.00 | 99 | 1003.3 |
| 20260503171158 | 17 | 225 | 3.2 | 4.8 | 0.00 | 4.24 | 0.00 | 99 | 1003.1 |
| 20260503170201 | 17 | 248 | 3.2 | 8.0 | 0.00 | 4.24 | 0.00 | 99 | 1003.0 |
| 20260503160217 | 17 | 225 | 3.2 | 8.0 | 0.00 | 4.24 | 0.00 | 99 | 1002.7 |
| 20260503150230 | 17 | 315 | 0.0 | 1.6 | 0.00 | 4.24 | 0.00 | 99 | 1002.4 |
| 20260503140246 | 17 | 270 | 3.2 | 11.3 | 0.00 | 4.24 | 0.00 | 99 | 1002.2 |